period_start,C,m1,H,J0,J1,J2,J3,J4,J5,JA,JB,JC,JD,JJ,JK,JN,#
2015-04-06 00:02:52,0.13,0.60,0.00,24.28,28.57,31.71,4.68,27.17,1029.31,2026.04,3181.73,3144.59,3386.86,349.61,350.16,5.60,0000 0000 0000 0000 000000
2015-04-06 00:07:53,0.13,0.60,0.00,24.59,28.59,31.71,4.88,27.23,1029.32,2026.02,3180.00,3143.46,3385.56,350.53,350.68,5.63,0000 0000 0000 0000 000000
2015-04-06 00:12:55,0.13,0.61,0.00,24.58,28.60,31.68,4.84,27.31,1029.31,2026.03,3178.29,3142.36,3384.28,349.86,350.28,5.66,0000 0000 0000 0000 000000
2015-04-06 00:17:56,0.12,0.61,0.00,24.57,28.60,31.69,4.84,27.27,1029.31,2026.01,3176.56,3141.21,3382.98,350.20,350.33,5.69,0000 0000 0000 0000 000000
2015-04-06 00:22:57,0.12,0.61,0.00,24.38,28.60,31.59,4.79,27.32,1029.31,2026.01,3174.87,3140.21,3381.82,349.70,350.08,5.72,0000 0000 0000 0000 000000
2015-04-06 00:27:59,0.12,0.62,0.00,24.31,28.60,31.54,4.94,27.24,1029.31,2026.01,3173.30,3139.20,3380.57,350.69,351.03,5.75,0000 0000 0000 0000 000000
2015-04-06 00:33:00,0.12,0.62,0.00,24.28,28.58,31.51,4.93,27.35,1029.26,2026.04,3171.67,3138.25,3379.46,350.61,351.14,5.78,0000 0000 0000 0000 000000
2015-04-06 00:38:01,0.11,0.62,0.00,24.27,28.57,31.48,4.84,27.20,1029.21,2026.04,3169.99,3137.19,3378.29,349.89,350.27,5.81,0000 0000 0000 0000 000000
2015-04-06 00:43:03,0.11,0.63,0.00,24.26,28.57,31.48,4.75,27.18,1029.18,2026.04,3168.35,3136.15,3377.05,350.14,350.64,5.84,0000 0000 0000 0000 000000
2015-04-06 00:48:04,0.14,0.63,0.00,24.23,28.56,31.49,4.88,27.23,1029.15,2026.03,3166.57,3135.11,3375.73,350.08,350.46,5.87,0000 0000 0000 0000 000000
2015-04-06 00:53:05,0.13,0.64,0.00,24.22,28.55,31.50,4.78,27.17,1029.20,2026.04,3164.91,3134.20,3374.56,349.65,349.92,5.90,0000 0000 0000 0000 000000
2015-04-06 00:58:06,0.11,0.64,0.00,24.17,28.55,31.51,4.84,27.24,1029.08,2026.03,3163.27,3133.12,3373.36,350.33,350.68,5.93,0000 0000 0000 0000 000000
2015-04-06 01:03:08,0.13,0.64,0.00,24.24,28.55,31.56,4.77,27.18,1029.12,2026.05,3161.64,3132.17,3372.26,349.73,350.33,5.96,0000 0000 0000 0000 000000
2015-04-06 01:08:09,0.13,0.65,0.00,24.55,28.55,31.57,4.85,27.23,1029.03,2026.06,3159.88,3130.99,3370.93,350.32,350.43,5.98,0000 0000 0000 0000 000000
2015-04-06 01:13:10,0.13,0.65,0.00,24.65,28.57,31.58,4.85,27.33,1028.93,2026.02,3158.12,3129.89,3369.64,350.66,350.57,6.01,0000 0000 0000 0000 000000
2015-04-06 01:18:12,0.13,0.65,0.00,24.68,28.57,31.57,4.79,27.17,1028.90,2026.04,3156.39,3128.83,3368.45,350.19,350.16,6.04,0000 0000 0000 0000 000000
2015-04-06 01:23:13,0.13,0.66,0.00,24.59,28.57,31.52,4.81,27.25,1028.92,2026.05,3154.64,3127.73,3367.14,349.69,349.63,6.07,0000 0000 0000 0000 000000
2015-04-06 01:28:14,0.15,0.66,0.00,24.56,28.56,31.48,4.79,27.32,1028.88,2026.10,3152.76,3126.58,3365.84,349.36,349.65,6.10,0000 0000 0000 0000 000000
2015-04-06 01:33:16,0.15,0.67,0.00,24.72,28.55,31.46,4.90,27.32,1028.85,2026.25,3151.07,3125.46,3364.59,350.27,350.02,6.13,0000 0000 0000 0000 000000
2015-04-06 01:38:17,0.11,0.67,0.00,24.82,28.55,31.45,4.78,27.24,1028.84,2026.16,3149.17,3124.39,3363.37,349.76,349.48,6.16,0000 0000 0000 0000 000000
2015-04-06 01:43:19,0.14,0.68,0.00,24.77,28.55,31.43,4.78,27.32,1028.85,2026.16,3147.33,3123.22,3362.01,349.50,349.44,6.19,0000 0000 0000 0000 000000
2015-04-06 01:48:20,0.13,0.68,0.00,24.79,28.55,31.39,4.78,27.22,1028.85,2026.14,3145.44,3122.02,3360.59,349.66,349.36,6.22,0000 0000 0000 0000 000000
2015-04-06 01:53:21,0.19,0.69,0.00,24.73,28.53,31.37,4.78,27.30,1028.83,2026.41,3143.60,3120.82,3359.36,349.89,349.76,6.25,0000 0000 0000 0000 000000
2015-04-06 01:58:23,0.17,0.69,0.00,24.89,28.52,31.37,4.84,27.43,1028.83,2026.44,3141.67,3119.58,3357.80,350.26,349.97,6.28,0000 0000 0000 0000 000000
2015-04-06 02:03:24,0.17,0.70,0.00,24.88,28.52,31.37,4.84,27.19,1028.83,2026.63,3139.78,3118.43,3356.52,350.35,349.93,6.31,0000 0000 0000 0000 000000
2015-04-06 02:08:25,0.13,0.70,0.00,24.85,28.51,31.36,4.83,27.35,1028.83,2026.72,3137.83,3117.22,3355.08,350.25,349.89,6.34,0000 0000 0000 0000 000000
2015-04-06 02:13:27,0.18,0.70,0.00,24.81,28.50,31.32,4.77,27.19,1028.83,2026.83,3135.89,3116.01,3353.69,349.37,349.05,6.37,0000 0000 0000 0000 000000
2015-04-06 02:18:28,0.14,0.71,0.00,24.80,28.50,31.29,4.77,27.26,1028.83,2026.88,3134.12,3114.86,3352.40,349.41,349.15,6.40,0000 0000 0000 0000 000000
2015-04-06 02:23:29,0.15,0.71,0.00,24.84,28.49,31.29,4.77,27.38,1028.83,2026.95,3132.29,3113.66,3351.11,350.14,349.83,6.42,0000 0000 0000 0000 000000
2015-04-06 02:28:30,0.15,0.72,0.00,24.86,28.47,31.27,4.67,27.15,1028.82,2026.95,3130.32,3112.44,3349.64,349.61,349.59,6.45,0000 0000 0000 0000 000000
2015-04-06 02:33:32,0.12,0.72,0.00,24.92,28.47,31.26,4.86,27.52,1028.82,2026.95,3128.36,3111.24,3348.24,349.92,349.63,6.48,0000 0000 0000 0000 000000
2015-04-06 02:38:33,0.17,0.73,0.00,24.95,28.47,31.27,4.76,27.18,1028.82,2026.97,3126.34,3109.92,3346.81,349.92,349.56,6.51,0000 0000 0000 0000 000000
2015-04-06 02:43:34,0.14,0.73,0.00,24.93,28.47,31.27,4.77,27.34,1028.82,2026.97,3124.37,3108.72,3345.46,349.86,349.34,6.54,0000 0000 0000 0000 000000
2015-04-06 02:48:36,0.16,0.74,0.00,24.90,28.45,31.25,4.71,27.16,1028.82,2026.97,3122.29,3107.46,3344.00,349.61,349.15,6.57,0000 0000 0000 0000 000000
2015-04-06 02:53:37,0.15,0.74,0.00,24.93,28.45,31.24,4.76,27.33,1028.83,2026.99,3120.25,3106.22,3342.47,349.57,349.15,6.60,0000 0000 0000 0000 000000
2015-04-06 02:58:38,0.22,0.75,0.00,24.95,28.44,31.20,4.89,27.40,1028.83,2026.99,3117.72,3104.57,3340.70,350.65,350.08,6.63,0000 0000 0000 0000 000000
2015-04-06 03:03:39,0.26,0.75,0.00,24.94,28.42,31.18,4.80,27.30,1028.84,2026.99,3114.44,3102.42,3338.38,350.13,349.56,6.66,0000 0000 0000 0000 000000
2015-04-06 03:08:40,0.30,0.76,0.00,25.00,28.42,31.17,4.80,27.37,1028.84,2026.99,3110.80,3100.09,3335.79,349.97,349.45,6.69,0000 0000 0000 0000 000000
2015-04-06 03:13:42,0.29,0.77,0.00,24.99,28.40,31.14,4.84,27.26,1028.84,2026.99,3107.01,3097.53,3333.07,350.49,350.02,6.72,0000 0000 0000 0000 000000
2015-04-06 03:18:43,0.30,0.78,0.00,25.00,28.40,31.13,4.83,27.34,1028.84,2026.99,3103.22,3095.13,3330.37,349.79,349.30,6.75,0000 0000 0000 0000 000000
2015-04-06 03:23:44,0.29,0.79,0.00,25.01,28.39,31.11,4.77,27.18,1028.84,2027.00,3099.45,3092.68,3327.80,349.84,349.48,6.78,0000 0000 0000 0000 000000
2015-04-06 03:28:46,0.31,0.80,0.00,25.03,28.37,31.12,4.78,27.27,1028.84,2027.02,3095.73,3090.17,3325.19,350.22,349.65,6.81,0000 0000 0000 0000 000000
2015-04-06 03:33:47,0.27,0.81,0.00,25.07,28.37,31.10,4.84,27.23,1028.86,2027.03,3092.22,3087.88,3322.56,350.05,349.57,6.83,0000 0000 0000 0000 000000
2015-04-06 03:38:48,0.29,0.81,0.00,25.03,28.35,31.08,4.80,27.45,1028.84,2027.05,3088.68,3085.53,3320.01,349.52,348.96,6.86,0000 0000 0000 0000 000000
2015-04-06 03:43:50,0.29,0.82,0.00,25.02,28.35,31.09,4.82,27.43,1028.84,2027.06,3085.02,3083.14,3317.39,350.14,349.86,6.89,0000 0000 0000 0000 000000
2015-04-06 03:48:51,0.28,0.83,0.00,25.00,28.33,31.05,4.85,27.42,1028.84,2027.07,3081.51,3080.79,3314.79,350.05,349.56,6.92,0000 0000 0000 0000 000000
2015-04-06 03:53:52,0.27,0.84,0.00,25.07,28.32,31.03,4.77,27.46,1028.84,2027.09,3078.22,3078.59,3312.38,349.86,349.24,6.95,0000 0000 0000 0000 000000
2015-04-06 03:58:53,0.27,0.85,0.00,25.10,28.31,31.02,4.79,27.50,1028.84,2027.14,3074.93,3076.44,3310.01,350.50,349.78,6.98,0000 0000 0000 0000 000000
2015-04-06 04:03:55,0.28,0.85,0.00,25.06,28.30,31.00,4.84,27.57,1028.84,2027.27,3071.80,3074.32,3307.71,350.32,349.71,7.01,0000 0000 0000 0000 000000
2015-04-06 04:08:57,0.27,0.86,0.00,25.10,28.29,31.00,4.73,27.38,1028.83,2027.41,3068.69,3072.25,3305.34,349.55,348.88,7.04,0000 0000 0000 0000 000000
2015-04-06 04:13:58,0.28,0.87,0.00,25.11,28.27,30.97,4.86,27.48,1028.83,2027.65,3065.50,3070.24,3303.06,350.21,349.81,7.07,0000 0000 0000 0000 000000
2015-04-06 04:19:00,0.27,0.88,0.00,25.15,28.26,30.97,4.77,27.44,1028.84,2027.73,3062.30,3068.14,3300.68,349.68,349.14,7.10,0000 0000 0000 0000 000000
2015-04-06 04:24:01,0.28,0.89,0.00,25.14,28.25,30.95,4.86,27.65,1028.84,2027.94,3059.16,3066.08,3298.39,350.70,350.05,7.13,0000 0000 0000 0000 000000
2015-04-06 04:29:02,0.25,0.90,0.00,25.14,28.23,30.93,4.77,27.50,1028.86,2027.95,3056.04,3064.07,3296.17,350.33,349.73,7.16,0000 0000 0000 0000 000000
2015-04-06 04:34:04,0.25,0.90,0.00,25.16,28.22,30.91,4.82,27.47,1028.85,2027.99,3052.92,3062.01,3293.89,349.84,349.16,7.19,0000 0000 0000 0000 000000
2015-04-06 04:39:05,0.26,0.91,0.00,25.16,28.21,30.89,4.76,27.38,1028.83,2027.99,3049.63,3059.85,3291.49,349.81,349.12,7.22,0000 0000 0000 0000 000000
2015-04-06 04:44:06,0.26,0.92,0.00,25.20,28.20,30.87,4.82,27.58,1028.83,2027.98,3046.35,3057.70,3289.17,350.18,349.45,7.24,0000 0000 0000 0000 000000
2015-04-06 04:49:07,0.27,0.93,0.00,25.24,28.17,30.87,4.78,27.51,1028.83,2027.99,3043.06,3055.54,3286.73,350.11,349.09,7.27,0000 0000 0000 0000 000000
2015-04-06 04:54:09,0.26,0.94,0.00,25.24,28.17,30.85,4.78,27.42,1028.83,2027.99,3039.85,3053.47,3284.46,349.85,349.10,7.30,0000 0000 0000 0000 000000
2015-04-06 04:59:10,0.28,0.94,0.00,25.22,28.16,30.84,4.72,27.32,1028.83,2027.99,3036.38,3051.19,3282.00,349.59,348.93,7.33,0000 0000 0000 0000 000000
2015-04-06 05:04:11,0.28,0.95,0.00,25.27,28.15,30.81,4.76,27.47,1028.83,2027.99,3032.92,3049.00,3279.55,349.47,348.73,7.36,0000 0000 0000 0000 000000
2015-04-06 05:09:13,0.27,0.96,0.00,25.28,28.13,30.81,4.77,27.43,1028.83,2028.00,3029.51,3046.78,3277.09,349.77,349.34,7.39,0000 0000 0000 0000 000000
2015-04-06 05:14:14,0.27,0.97,0.00,25.33,28.12,30.76,4.77,27.24,1028.82,2028.00,3026.07,3044.54,3274.63,349.56,348.92,7.42,0000 0000 0000 0000 000000
2015-04-06 05:19:15,0.29,0.98,0.00,25.28,28.11,30.75,4.75,27.50,1028.82,2028.01,3022.58,3042.25,3272.18,350.25,349.39,7.45,0000 0000 0000 0000 000000
2015-04-06 05:24:16,0.28,0.99,0.00,25.28,28.10,30.68,4.84,27.43,1028.82,2028.02,3019.03,3040.06,3269.65,350.46,349.61,7.48,0000 0000 0000 0000 000000
2015-04-06 05:29:18,0.29,0.99,0.00,25.31,28.07,30.64,4.74,27.69,1028.82,2028.08,3015.45,3037.77,3267.24,350.26,349.43,7.51,0000 0000 0000 0000 000000
2015-04-06 05:34:19,0.32,1.00,0.00,25.30,28.06,30.63,4.75,27.46,1028.82,2028.19,3011.83,3035.48,3264.72,349.42,348.56,7.54,0000 0000 0000 0000 000000
2015-04-06 05:39:20,0.35,1.01,0.00,25.32,28.05,30.63,4.85,27.42,1028.82,2028.48,3008.22,3033.14,3262.26,350.51,349.69,7.57,0000 0000 0000 0000 000000
2015-04-06 05:44:22,0.33,1.02,0.00,25.30,28.03,30.66,4.83,27.59,1028.82,2028.79,3004.49,3030.80,3259.69,350.03,349.18,7.60,0000 0000 0000 0000 000000
2015-04-06 05:49:23,0.34,1.03,0.00,25.33,28.02,30.61,4.75,27.38,1028.82,2028.77,3000.35,3028.29,3256.94,349.72,348.80,7.63,0000 0000 0000 0000 000000
2015-04-06 05:54:24,0.34,1.04,0.00,25.29,28.01,30.52,4.83,27.44,1028.82,2028.92,2996.17,3025.65,3254.14,350.65,349.88,7.65,0000 0000 0000 0000 000000
2015-04-06 05:59:26,0.35,1.05,0.00,25.33,28.00,30.54,4.81,27.54,1028.82,2028.93,2991.72,3023.08,3251.24,350.33,349.16,7.68,0000 0000 0000 0000 000000
2015-04-06 06:04:27,0.38,1.06,0.00,25.33,27.98,30.60,4.73,27.61,1028.83,2028.96,2987.02,3020.26,3248.20,349.20,348.07,7.71,0000 0000 0000 0000 000000
2015-04-06 06:09:29,0.35,1.07,0.00,25.39,27.97,30.52,4.82,27.55,1028.83,2028.99,2982.44,3017.59,3245.28,349.89,348.67,7.74,0000 0000 0000 0000 000000
2015-04-06 06:14:30,0.35,1.09,0.00,25.40,27.95,30.48,4.81,27.44,1028.83,2028.99,2977.96,3014.89,3242.30,350.46,349.50,7.77,0000 0000 0000 0000 000000
2015-04-06 06:19:31,0.36,1.10,0.00,25.42,27.94,30.45,4.80,27.42,1028.83,2028.99,2973.43,3012.19,3239.34,349.95,348.92,7.80,0000 0000 0000 0000 000000
2015-04-06 06:24:32,0.37,1.11,0.00,25.37,27.92,30.49,4.81,27.43,1028.84,2028.99,2968.75,3009.36,3236.18,349.80,348.95,7.83,0000 0000 0000 0000 000000
2015-04-06 06:29:34,0.37,1.12,0.00,25.38,27.91,30.42,4.80,27.46,1028.84,2028.99,2963.86,3006.55,3233.05,350.20,349.19,7.86,0000 0000 0000 0000 000000
2015-04-06 06:34:35,0.39,1.13,0.00,25.36,27.90,30.45,4.75,27.38,1028.83,2028.99,2959.00,3003.66,3229.86,349.66,348.71,7.89,0000 0000 0000 0000 000000
2015-04-06 06:39:37,0.36,1.14,0.00,25.29,27.88,30.47,4.88,27.68,1028.83,2028.99,2954.23,3000.87,3226.75,350.53,349.69,7.92,0000 0000 0000 0000 000000
2015-04-06 06:44:38,0.37,1.15,0.00,25.29,27.87,30.50,4.82,27.48,1028.83,2028.99,2949.67,2998.10,3223.77,350.24,349.27,7.95,0000 0000 0000 0000 000000
2015-04-06 06:49:39,0.35,1.16,0.00,25.06,27.86,30.52,4.74,27.38,1028.83,2029.02,2945.21,2995.37,3220.77,349.86,349.14,7.98,0000 0000 0000 0000 000000
2015-04-06 06:54:40,0.37,1.17,0.00,24.50,27.85,30.49,4.73,27.66,1028.83,2029.03,2940.67,2992.65,3217.78,349.79,349.84,8.01,0000 0000 0000 0000 000000
2015-04-06 06:59:42,0.37,1.18,0.00,24.20,27.85,30.39,4.81,27.75,1028.82,2029.02,2935.99,2989.86,3214.75,349.82,350.29,8.04,0000 0000 0000 0000 000000
2015-04-06 07:04:43,0.40,1.19,0.00,24.02,27.84,30.30,4.87,27.63,1028.82,2029.03,2931.19,2986.92,3211.56,350.37,350.94,8.06,0000 0000 0000 0000 000000
2015-04-06 07:09:44,0.39,1.21,0.00,23.82,27.83,30.39,4.81,27.59,1028.82,2029.02,2926.29,2983.97,3208.30,349.80,350.99,8.09,0000 0000 0000 0000 000000
2015-04-06 07:14:45,0.39,1.22,0.00,23.61,27.83,30.41,4.75,27.44,1028.82,2029.03,2921.36,2981.04,3205.11,349.69,350.82,8.12,0000 0000 0000 0000 000000
2015-04-06 07:19:47,0.40,1.23,0.00,23.59,27.85,30.40,4.80,27.38,1028.82,2029.02,2916.40,2977.97,3201.79,350.01,351.22,8.15,0000 0000 0000 0000 000000
2015-04-06 07:24:48,0.31,1.24,0.00,23.72,27.85,30.44,4.81,27.49,1028.82,2029.01,2912.28,2975.38,3199.11,350.41,351.74,8.18,0000 0000 0000 0000 000000
2015-04-06 07:29:50,0.28,1.25,0.00,23.70,27.86,30.44,4.83,27.56,1028.82,2029.01,2908.98,2973.23,3196.78,350.42,351.45,8.21,0000 0000 0000 0000 000000
2015-04-06 07:34:51,0.27,1.26,0.00,23.84,27.88,30.50,4.78,27.46,1028.82,2029.00,2905.68,2971.09,3194.35,349.75,350.67,8.24,0000 0000 0000 0000 000000
2015-04-06 07:39:53,0.27,1.26,0.00,23.95,27.91,30.54,4.79,27.47,1028.83,2029.00,2902.54,2969.05,3192.16,349.88,350.66,8.27,0000 0000 0000 0000 000000
2015-04-06 07:44:54,0.33,1.27,0.00,24.20,27.94,30.62,4.82,27.48,1028.84,2029.00,2898.72,2966.60,3189.47,349.89,350.32,8.30,0000 0000 0000 0000 000000
2015-04-06 07:49:56,0.35,1.28,0.00,24.23,27.97,30.71,4.80,27.33,1028.84,2028.98,2894.42,2963.87,3186.52,350.03,350.43,8.33,0000 0000 0000 0000 000000
2015-04-06 07:54:57,0.39,1.29,0.00,24.44,28.01,30.76,4.77,27.24,1028.84,2028.97,2889.88,2961.08,3183.41,349.72,349.92,8.36,0000 0000 0000 0000 000000
2015-04-06 07:59:59,0.40,1.31,0.00,24.81,28.04,30.83,4.85,27.30,1028.86,2028.93,2885.02,2958.03,3180.11,349.76,349.54,8.39,0000 0000 0000 0000 000000
2015-04-06 08:05:00,0.37,1.32,0.00,24.44,28.07,31.12,4.85,27.30,1028.85,2028.78,2880.07,2954.93,3176.75,350.74,350.92,8.42,0000 0000 0000 0000 000000
2015-04-06 08:10:02,0.39,1.33,0.00,24.53,28.10,31.13,4.77,27.31,1028.87,2028.76,2875.40,2952.04,3173.58,349.98,349.97,8.45,0000 0000 0000 0000 000000
2015-04-06 08:15:03,0.37,1.34,0.00,24.66,28.10,30.98,4.85,27.46,1028.85,2028.83,2870.96,2949.30,3170.61,350.27,349.99,8.47,0000 0000 0000 0000 000000
2015-04-06 08:20:04,0.38,1.35,0.00,24.76,28.10,30.68,4.82,27.30,1028.84,2028.87,2866.57,2946.55,3167.58,350.48,350.24,8.50,0000 0000 0000 0000 000000
2015-04-06 08:25:06,0.38,1.36,0.00,24.72,28.10,30.62,4.67,27.34,1028.83,2028.88,2862.04,2943.80,3164.52,349.44,349.26,8.53,0000 0000 0000 0000 000000
2015-04-06 08:30:07,0.36,1.38,0.00,24.75,28.09,30.70,4.78,27.52,1028.83,2028.93,2857.81,2941.19,3161.61,349.56,349.35,8.56,0000 0000 0000 0000 000000
2015-04-06 08:35:08,0.37,1.39,0.00,24.83,28.07,30.50,4.67,27.31,1028.84,2028.92,2853.49,2938.49,3158.61,349.62,349.56,8.59,0000 0000 0000 0000 000000
2015-04-06 08:40:09,0.36,1.39,0.00,24.80,28.05,30.34,4.78,27.31,1028.83,2028.92,2849.19,2935.82,3155.68,350.23,350.26,8.62,0000 0000 0000 0000 000000
2015-04-06 08:45:10,0.36,1.41,0.00,24.82,28.01,30.19,4.79,27.37,1028.83,2028.97,2844.94,2933.20,3152.83,349.85,349.56,8.65,0000 0000 0000 0000 000000
2015-04-06 08:50:11,0.37,1.42,0.00,24.81,27.99,30.14,4.77,27.57,1028.83,2028.98,2840.62,2930.46,3149.87,350.18,349.83,8.68,0000 0000 0000 0000 000000
2015-04-06 08:55:13,0.35,1.43,0.00,24.81,27.95,30.08,4.87,27.46,1028.83,2028.99,2836.50,2927.90,3147.04,350.56,350.18,8.71,0000 0000 0000 0000 000000
2015-04-06 09:00:14,0.36,1.44,0.00,24.79,27.91,30.00,4.80,27.56,1028.83,2028.99,2832.36,2925.31,3144.21,349.69,349.73,8.74,0000 0000 0000 0000 000000
2015-04-06 09:05:15,0.35,1.45,0.00,24.73,27.88,30.03,4.79,27.48,1028.83,2029.01,2828.29,2922.75,3141.38,350.17,349.99,8.77,0000 0000 0000 0000 000000
2015-04-06 09:10:17,0.36,1.46,0.00,24.81,27.84,29.94,4.77,27.54,1028.83,2029.02,2824.14,2920.15,3138.56,350.30,349.93,8.80,0000 0000 0000 0000 000000
2015-04-06 09:15:18,0.35,1.47,0.00,24.82,27.80,29.86,4.76,27.54,1028.82,2029.04,2820.09,2917.54,3135.76,350.06,350.05,8.83,0000 0000 0000 0000 000000
2015-04-06 09:20:19,0.39,1.48,0.00,24.76,27.76,29.85,4.84,27.52,1028.82,2029.30,2816.25,2915.17,3133.31,350.42,350.02,8.86,0000 0000 0000 0000 000000
2015-04-06 09:25:21,0.39,1.49,0.00,24.68,27.73,29.95,4.83,27.73,1028.82,2029.65,2812.37,2912.65,3130.56,350.06,349.94,8.88,0000 0000 0000 0000 000000
2015-04-06 09:30:22,0.34,1.50,0.00,24.77,27.69,29.90,4.80,27.73,1028.82,2029.79,2808.59,2910.24,3127.98,349.90,349.51,8.91,0000 0000 0000 0000 000000
2015-04-06 09:35:24,0.29,1.51,0.00,24.79,27.66,29.86,4.79,27.60,1028.81,2029.96,2805.16,2908.17,3125.66,349.78,349.59,8.94,0000 0000 0000 0000 000000
2015-04-06 09:40:25,0.29,1.52,0.00,24.77,27.62,29.75,4.79,27.69,1028.80,2029.98,2801.93,2906.11,3123.39,349.51,349.51,8.97,0000 0000 0000 0000 000000
2015-04-06 09:45:26,0.31,1.53,0.00,24.73,27.59,29.75,4.84,27.82,1028.80,2029.99,2798.55,2904.06,3121.06,349.90,349.71,9.00,0000 0000 0000 0000 000000
2015-04-06 09:50:27,0.20,1.54,0.00,24.77,27.55,29.67,4.75,27.47,1028.79,2029.99,2795.50,2902.18,3119.09,349.92,349.70,9.03,0000 0000 0000 0000 000000
2015-04-06 09:55:29,0.12,1.54,0.00,24.75,27.52,29.70,4.71,27.66,1028.67,2030.02,2794.04,2901.22,3117.96,349.52,349.25,9.06,0000 0000 0000 0000 000000
2015-04-06 10:00:30,0.09,1.55,0.00,24.76,27.49,29.61,4.77,27.66,1028.44,2030.07,2792.95,2900.95,3117.10,350.09,349.89,9.09,0000 0000 0000 0000 000000
2015-04-06 10:05:31,0.12,1.55,0.00,24.70,27.46,29.57,4.79,27.66,1028.64,2030.19,2791.88,2900.14,3116.64,350.03,349.80,9.12,0000 0000 0000 0000 000000
2015-04-06 10:10:33,0.15,1.55,0.00,24.66,27.43,29.64,4.85,27.57,1028.58,2030.60,2790.79,2899.87,3116.01,350.61,350.30,9.15,0000 0000 0000 0000 000000
2015-04-06 10:15:34,0.13,1.56,0.00,24.71,27.40,29.57,4.88,27.77,1028.65,2030.94,2789.81,2899.13,3115.38,350.26,350.23,9.18,0000 0000 0000 0000 000000
2015-04-06 10:20:35,0.04,1.56,0.00,24.74,27.36,29.57,4.76,27.61,1028.64,2030.98,2789.01,2898.97,3114.83,349.85,349.52,9.21,0000 0000 0000 0000 000000
2015-04-06 10:25:37,0.09,1.56,0.00,24.68,27.33,29.51,4.81,27.63,1028.58,2030.99,2788.15,2898.30,3114.03,350.17,350.02,9.24,0000 0000 0000 0000 000000
2015-04-06 10:30:38,0.07,1.56,0.00,24.62,27.30,29.59,4.81,27.76,1028.66,2030.99,2787.15,2897.97,3113.46,349.88,350.03,9.27,0000 0000 0000 0000 000000
2015-04-06 10:35:39,0.08,1.57,0.00,24.66,27.27,29.55,4.75,27.50,1028.75,2031.00,2786.21,2897.22,3112.87,349.99,349.89,9.30,0000 0000 0000 0000 000000
2015-04-06 10:40:40,0.06,1.57,0.00,24.68,27.25,29.52,4.78,27.56,1028.53,2031.01,2785.27,2896.99,3112.08,349.96,349.74,9.32,0000 0000 0000 0000 000000
2015-04-06 10:45:42,0.10,1.57,0.00,24.64,27.22,29.62,4.83,27.75,1028.49,2031.08,2784.30,2896.37,3111.63,350.06,349.81,9.35,0000 0000 0000 0000 000000
2015-04-06 10:50:43,0.08,1.57,0.00,24.58,27.20,29.51,4.82,27.77,1028.46,2031.18,2783.21,2895.98,3111.01,350.01,349.89,9.38,0000 0000 0000 0000 000000
2015-04-06 10:55:44,0.19,1.58,0.00,24.52,27.17,29.62,4.83,27.70,1028.48,2031.77,2782.31,2895.44,3110.32,349.60,349.62,9.41,0000 0000 0000 0000 000000
2015-04-06 11:00:45,0.07,1.58,0.00,24.56,27.15,29.70,4.76,27.67,1028.44,2031.93,2781.42,2895.00,3109.86,349.98,349.84,9.44,0000 0000 0000 0000 000000
2015-04-06 11:05:46,0.11,1.58,0.00,24.66,27.13,29.66,4.78,27.58,1028.37,2031.97,2780.27,2894.32,3109.07,349.92,349.73,9.47,0000 0000 0000 0000 000000
2015-04-06 11:10:47,0.07,1.59,0.00,24.58,27.12,29.58,4.77,27.61,1028.35,2031.98,2779.22,2893.94,3108.41,350.00,349.79,9.50,0000 0000 0000 0000 000000
2015-04-06 11:15:49,0.10,1.59,0.00,24.54,27.10,29.52,4.87,27.77,1028.35,2031.99,2778.46,2893.15,3107.72,350.07,349.99,9.53,0000 0000 0000 0000 000000
2015-04-06 11:20:50,0.08,1.59,0.00,24.56,27.08,29.59,4.74,27.57,1028.35,2031.99,2777.31,2892.67,3106.98,350.60,350.51,9.56,0000 0000 0000 0000 000000
2015-04-06 11:25:52,0.08,1.60,0.00,24.57,27.07,29.52,4.76,27.48,1028.35,2031.99,2776.32,2892.03,3106.21,349.79,349.70,9.59,0000 0000 0000 0000 000000
2015-04-06 11:30:53,0.08,1.60,0.00,24.42,27.05,29.60,4.81,27.52,1028.35,2031.99,2775.42,2891.69,3105.69,350.56,350.44,9.62,0000 0000 0000 0000 000000
2015-04-06 11:35:54,0.07,1.60,0.00,24.34,27.03,29.68,4.81,27.60,1028.35,2031.99,2774.36,2891.01,3105.00,350.27,350.31,9.65,0000 0000 0000 0000 000000
2015-04-06 11:40:56,0.10,1.60,0.00,24.50,27.02,29.72,4.77,27.41,1028.38,2032.00,2773.30,2890.41,3104.25,349.94,349.86,9.68,0000 0000 0000 0000 000000
2015-04-06 11:45:57,0.08,1.60,0.00,24.52,27.02,29.65,4.76,27.52,1028.37,2032.00,2772.19,2889.88,3103.48,349.50,349.42,9.70,0000 0000 0000 0000 000000
2015-04-06 11:50:58,0.08,1.61,0.00,24.35,27.00,29.63,4.72,27.40,1028.35,2032.01,2771.35,2889.17,3102.87,349.55,349.89,9.73,0000 0000 0000 0000 000000
2015-04-06 11:56:00,0.07,1.61,0.00,24.06,27.00,29.71,4.83,27.77,1028.34,2032.01,2770.42,2888.83,3102.06,350.17,350.75,9.76,0000 0000 0000 0000 000000
2015-04-06 12:01:01,0.10,1.61,0.00,24.32,27.00,29.74,4.89,27.59,1028.34,2032.02,2769.26,2888.01,3101.20,350.29,350.29,9.79,0000 0000 0000 0000 000000
2015-04-06 12:06:03,0.13,1.62,0.00,24.28,27.00,29.80,4.83,27.52,1028.35,2032.01,2767.82,2887.14,3100.20,350.14,350.44,9.82,0000 0000 0000 0000 000000
2015-04-06 12:11:04,0.12,1.62,0.00,23.82,27.00,29.68,4.90,27.74,1028.35,2032.00,2766.32,2886.29,3099.28,350.48,351.12,9.85,0000 0000 0000 0000 000000
2015-04-06 12:16:05,0.11,1.62,0.00,24.09,26.99,29.57,4.81,27.52,1028.35,2032.03,2764.89,2885.62,3098.52,350.01,350.40,9.88,0000 0000 0000 0000 000000
2015-04-06 12:21:06,0.10,1.63,0.00,23.89,26.97,29.59,4.87,27.55,1028.34,2032.16,2763.71,2884.97,3097.83,350.22,350.77,9.91,0000 0000 0000 0000 000000
2015-04-06 12:26:08,0.16,1.63,0.00,23.73,26.97,29.71,4.83,27.83,1028.35,2032.37,2762.64,2884.14,3096.93,350.09,350.97,9.94,0000 0000 0000 0000 000000
2015-04-06 12:31:09,0.13,1.64,0.00,23.92,26.97,29.76,4.75,27.75,1028.37,2032.46,2760.83,2883.26,3095.91,350.01,350.41,9.97,0000 0000 0000 0000 000000
2015-04-06 12:36:11,0.13,1.64,0.00,24.34,26.97,29.79,4.78,27.79,1028.36,2032.42,2759.83,2882.27,3094.62,349.69,349.76,10.00,0000 0000 0000 0000 000000
2015-04-06 12:41:12,0.10,1.64,0.00,23.94,26.98,29.86,4.77,27.58,1028.35,2032.26,2758.16,2881.43,3093.68,349.78,350.47,10.03,0000 0000 0000 0000 000000
2015-04-06 12:46:13,0.14,1.65,0.00,23.36,26.98,29.74,4.88,27.72,1028.36,2032.15,2756.47,2880.33,3092.38,350.32,351.56,10.06,0000 0000 0000 0000 000000
2015-04-06 12:51:14,0.19,1.65,0.00,23.39,26.97,29.35,4.82,27.75,1028.35,2032.27,2754.39,2879.23,3091.42,349.96,351.38,10.09,0000 0000 0000 0000 000000
2015-04-06 12:56:15,0.22,1.66,0.00,23.74,26.96,29.15,4.78,27.82,1028.35,2032.69,2752.55,2878.27,3090.09,349.92,350.65,10.11,0000 0000 0000 0000 000000
2015-04-06 13:01:17,0.19,1.66,0.00,23.49,26.94,29.29,4.83,27.74,1028.34,2032.96,2750.98,2877.15,3088.79,350.15,351.28,10.14,0000 0000 0000 0000 000000
2015-04-06 13:06:18,0.14,1.67,0.00,23.38,26.92,29.43,4.79,27.68,1028.34,2032.98,2749.33,2876.03,3087.49,349.84,350.89,10.17,0000 0000 0000 0000 000000